Home > Weather > Hebron > Past weeks

Flag for Palestinian Territories Weather for the Past 2 Weeks in Hebron, West Bank, Palestinian Territories

Now
73 °F

Clear.


Feels Like: 77 °F
Forecast: 55 / 65 °F
Wind: 9 mph from Southeast

Location: Ben Gurion International Airport

Current Time: May 4, 2016 at 1:20:12 AM

Latest Report: May 4, 2016 at 12:20 AM


Visibility: 10 mi

Pressure: 29.77 "Hg (26.85 "Hg at 894m altitude)

Humidity: 41%

Dew Point: 48 °F

Location of HebronLocation

Historic Weather in Hebron — Graph

°F

Hebron Temperature Yesterday

Maximum temperature yesterday: 90 °F (at 12:20 PM)
Minimum temperature yesterday: 66 °F (at 5:20 AM)
Average temperature yesterday: 77 °F

High & Low Weather Summary for the Past Weeks

 TemperatureHumidityPressure
High104 °F (Apr 26, 2:50 PM)94% (Apr 19, 3:20 AM)30.04 "Hg (Apr 19, 3:20 AM)
Low59 °F (Apr 24, 6:20 AM)7% (Apr 20, 11:20 AM)29.56 "Hg (Apr 25, 12:50 AM)
Average74 °F52%29.87 "Hg
* Reported Apr 19 12:20 AM — May 4 12:20 AM, Hebron, Weather by CustomWeather, © 2016

Note: Actual official high and low records may vary slightly from our data, if they occured in-between our weather recording intervals... More about our weather records

Advertising

Hebron Weather History for the Previous 24 Hours

Scroll right to see more
 ConditionsComfort  
Time TempWeatherWind HumidityBarometerVisibility
12:20 AM
Wed, May 4
73 °FClear.9 mph41%29.77 "Hg10 mi
11:50 PM
Tue, May 3
75 °FClear.6 mph36%29.83 "Hg10 mi
11:20 PM77 °FClear.2 mph30%29.83 "Hg10 mi
10:50 PM77 °FClear.1 mph30%29.83 "Hg10 mi
10:20 PM77 °FClear.6 mph30%29.80 "Hg10 mi
9:50 PM77 °FClear.6 mph32%29.80 "Hg10 mi
9:20 PM79 °FClear.6 mph30%29.77 "Hg10 mi
8:50 PM79 °FClear.7 mph32%29.77 "Hg10 mi
8:20 PM79 °FSunny.10 mph32%29.74 "Hg10 mi
7:50 PM79 °FSunny.10 mph34%29.74 "Hg10 mi
7:20 PM81 °FSunny.14 mph32%29.74 "Hg10 mi
6:50 PM82 °FSunny.14 mph28%29.71 "Hg10 mi
6:20 PM84 °FSunny.16 mph27%29.71 "Hg10 mi
5:50 PM86 °FSunny.14 mph29%29.77 "Hg10 mi
5:20 PM88 °FSunny.12 mph29%29.74 "Hg10 mi
4:50 PM86 °FSunny.13 mph33%29.74 "Hg10 mi
4:20 PM86 °FSunny.13 mph35%29.74 "Hg10 mi
3:50 PM84 °FSunny.15 mph33%29.74 "Hg10 mi
3:20 PM86 °FSunny.16 mph31%29.77 "Hg10 mi
2:20 PM86 °FSunny.15 mph29%29.80 "Hg10 mi
1:50 PM90 °FSunny.12 mph26%29.80 "Hg10 mi
1:20 PM88 °FSunny.12 mph33%29.80 "Hg10 mi
12:50 PM90 °FSunny.5 mph26%29.80 "Hg10 mi
12:20 PM90 °FSunny.2 mph26%29.80 "Hg10 mi
11:50 AM88 °FSunny.1 mph25%29.83 "Hg10 mi
11:20 AM86 °FSunny.1 mph29%29.83 "Hg10 mi
10:50 AM82 °FSunny.2 mph35%29.83 "Hg10 mi
10:20 AM81 °FSunny.2 mph37%29.83 "Hg10 mi
9:20 AM77 °FSunny.2 mph42%29.83 "Hg10 mi
8:50 AM73 °FSunny.2 mph47%29.83 "Hg10 mi
8:20 AM72 °FSunny.5 mph50%29.86 "Hg10 mi
7:50 AM70 °FSunny.3 mph57%29.86 "Hg10 mi
7:20 AM68 °FSunny.3 mph64%29.86 "Hg10 mi
6:50 AM68 °FClear.3 mph60%29.86 "Hg10 mi
6:20 AM66 °FClear.5 mph64%29.86 "Hg10 mi
5:50 AM68 °FClear.3 mph64%29.86 "Hg10 mi
5:20 AM66 °FClear.2 mph68%29.86 "Hg10 mi
4:20 AM68 °FClear.3 mph64%29.86 "Hg10 mi
3:50 AM68 °FClear.6 mph69%29.83 "Hg10 mi
3:20 AM68 °FClear.3 mph69%29.86 "Hg10 mi
2:50 AM68 °FClear.5 mph69%29.86 "Hg10 mi
2:20 AM70 °FClear.2 mph69%29.86 "Hg10 mi
1:50 AM68 °FClear.6 mph73%29.86 "Hg10 mi
1:20 AM68 °FClear.3 mph73%29.86 "Hg10 mi
Weather by CustomWeather, © 2016

See weather overviewHow to use our weather pages